FW7064 Weather Reports


time (UTC)temp
C
wind
direction
speed
KPH
gust
KPH
rain 1hr
cm
rain 24hr
cm
rain mn
cm
humidity
%
barometer
mb
20260503224719 18 315 0.0 0.0 0.00 0.00 0.00 57 1013.1
20260503224619 18 315 0.0 0.0 0.00 0.00 0.00 56 1013.1
20260503223620 18 315 0.0 0.0 0.00 0.00 0.00 57 1013.4
20260503222619 18 315 0.0 0.0 0.00 0.00 0.00 60 1013.5
20260503220719 18 315 0.0 0.0 0.00 0.00 0.00 60 1013.8
20260503215818 18 315 0.0 0.0 0.00 0.00 0.00 60 1013.9
20260503214820 18 315 0.0 0.0 0.00 0.00 0.00 63 1014.1
20260503213819 18 315 0.0 0.0 0.00 0.00 0.00 63 1014.2
20260503212819 17 315 0.0 0.0 0.00 0.00 0.00 64 1014.3
20260503205917 16 315 0.0 0.0 0.00 0.00 0.00 69 1014.6
20260503203921 17 337 0.0 0.0 0.00 0.00 0.00 69 1014.6
20260503203019 17 315 0.0 0.0 0.00 0.00 0.00 68 1014.7
20260503202018 16 337 0.0 0.0 0.00 0.00 0.00 69 1014.7
20260503201019 16 337 0.0 0.0 0.00 0.00 0.00 71 1014.7
20260503200920 16 337 0.0 0.0 0.00 0.00 0.00 71 1014.7
20260503200018 16 337 0.0 0.0 0.00 0.00 0.00 69 1014.9
20260503194021 16 292 0.0 0.0 0.00 0.00 0.00 66 1015.1
20260503193019 17 315 0.0 0.0 0.00 0.00 0.00 65 1015.3
20260503192021 17 315 0.0 0.0 0.00 0.00 0.00 65 1015.3
20260503191020 16 315 0.0 0.0 0.00 0.00 0.00 66 1015.5
20260503190019 16 315 0.0 0.0 0.00 0.00 0.00 68 1015.6
20260503185020 16 315 0.0 0.0 0.00 0.00 0.00 67 1015.6
20260503184118 16 315 0.0 0.0 0.00 0.00 0.00 70 1015.8
20260503184021 16 315 0.0 0.0 0.00 0.00 0.00 71 1015.7
20260503183021 15 315 0.0 0.0 0.00 0.00 0.00 73 1015.9
20260503182918 15 301 0.0 0.0 0.00 0.00 0.00 73 1015.9
20260503181920 16 315 0.0 0.0 0.00 0.00 0.00 70 1016.0
20260503180920 16 315 0.0 0.0 0.00 0.00 0.00 72 1016.1
20260503175019 15 315 0.0 0.0 0.00 0.00 0.00 72 1016.2
20260503174020 15 315 0.0 0.0 0.00 0.00 0.00 71 1016.3
20260503173117 15 293 0.0 0.0 0.00 0.00 0.00 72 1016.4
20260503172120 15 295 0.0 0.0 0.00 0.00 0.00 71 1016.4
20260503171119 15 292 0.0 0.0 0.00 0.00 0.00 71 1016.5
20260503170117 16 292 0.0 0.0 0.00 0.00 0.00 70 1016.4
20260503150418 13 292 0.0 0.0 0.00 0.00 0.00 75 1016.9
20260503130721 14 292 0.0 0.0 0.00 0.00 0.00 74 1016.2
20260503081019 11 360 0.0 0.0 0.00 0.00 0.00 89 1016.1
20260503080118 11 360 0.0 0.0 0.00 0.00 0.00 88 1016.1
20260503072318 11 360 0.0 0.0 0.00 0.00 0.00 86 1016.0
20260503071319 11 360 0.0 0.0 0.00 0.00 0.00 85 1016.0
20260503070318 11 315 0.0 0.0 0.00 0.00 0.00 85 1016.0
20260503070219 11 315 0.0 0.0 0.00 0.00 0.00 85 1016.0
20260503060323 13 292 0.0 0.0 0.00 0.00 0.00 73 1016.0
20260503054324 16 157 0.0 0.0 0.00 0.00 0.00 67 1015.9
20260503052324 15 157 0.0 0.0 0.00 0.00 0.00 71 1016.0
20260503051421 15 135 0.0 0.0 0.00 0.00 0.00 69 1016.0
20260503051323 15 135 0.0 0.0 0.00 0.00 0.00 69 1015.9
20260503050322 15 135 0.0 0.0 0.00 0.00 0.00 69 1016.0
20260503045421 15 135 0.0 0.0 0.00 0.00 0.00 73 1015.9
20260503044423 14 112 0.0 0.0 0.00 0.00 0.00 75 1015.9
20260503043522 14 112 0.0 0.0 0.00 0.00 0.00 76 1015.9
20260503041522 13 157 0.0 0.0 0.00 0.00 0.00 77 1015.7
20260503040522 14 157 0.0 0.0 0.00 0.00 0.00 75 1015.6
20260503035622 14 157 0.0 0.0 0.00 0.00 0.00 72 1015.6
20260503034623 14 157 0.0 0.0 0.00 0.00 0.00 73 1015.3
20260503033624 15 157 0.0 0.0 0.00 0.00 0.00 72 1015.2
20260503032722 15 157 0.0 0.0 0.00 0.00 0.00 71 1015.1
20260503030722 15 337 0.0 0.0 0.00 0.00 0.00 69 1015.0
20260503025722 15 337 0.0 0.0 0.00 0.00 0.00 68 1015.0
20260503024622 16 337 0.0 0.0 0.00 0.00 0.00 67 1015.0
20260503023621 15 337 0.0 0.0 0.00 0.00 0.00 69 1015.1
20260503023522 15 303 0.0 0.0 0.00 0.00 0.00 70 1015.0
20260503022522 15 315 0.0 0.0 0.00 0.00 0.00 69 1015.1
20260503021523 15 315 0.0 0.0 0.00 0.00 0.00 68 1015.1
20260503020523 15 315 0.0 0.0 0.00 0.00 0.00 67 1015.0
20260503015522 17 315 0.0 0.0 0.00 0.00 0.00 63 1015.2
20260503014523 18 292 0.0 0.0 0.00 0.00 0.00 64 1015.2
20260503013525 16 292 0.0 0.0 0.00 0.00 0.00 70 1015.3
20260503012622 16 315 0.0 0.0 0.00 0.00 0.00 69 1015.5
20260503011624 16 292 0.0 0.0 0.00 0.00 0.00 69 1015.6
20260503005821 16 315 0.0 0.0 0.00 0.00 0.00 67 1015.7
20260503003922 16 315 0.0 0.0 0.00 0.00 0.00 70 1015.8
20260503002923 15 315 0.0 0.0 0.00 0.00 0.00 70 1015.8
20260503001923 16 315 0.0 0.0 0.00 0.00 0.00 66 1015.8
20260503001824 16 304 0.0 0.0 0.00 0.00 0.00 65 1015.7
20260503000922 17 315 0.0 0.0 0.00 0.00 0.00 65 1015.9
20260502235922 16 292 0.0 0.0 0.00 0.00 0.00 66 1015.9
20260502233922 16 307 0.0 0.0 0.00 0.00 0.00 67 1016.2
20260502232923 16 292 0.0 0.0 0.00 0.00 0.00 66 1016.2
20260502231923 16 292 0.0 0.0 0.00 0.00 0.00 66 1016.3
20260502230924 16 298 0.0 0.0 0.00 0.00 0.00 67 1016.4